Tracking 29528 objects as of 14-Sep-2024
HD Live streaming from Space Station
objects crossing your sky now

METEOR 2-8 DEB

Track METEOR 2-8 DEB now!
10-day predictions


NORAD ID: 36336
Int'l Code: 1982-025W
Perigee: 849.9 km
Apogee: 860.0 km
Inclination: 82.5 °
Period: 101.9 minutes
Semi major axis: 7225 km
RCS: 0.0095 m2 (small)
Launch date: March 25, 1982
Source: Commonwealth of Independent States (former USSR) (CIS)
Launch site: PLESETSK MISSILE AND SPACE COMPLEX (PKMTR)

Note: This is SATELLITE DEBRIS
Your satellite tracking list
Your tracking list is empty




NASA's NSSDC Master Catalog

Two Line Element Set (TLE):
1 36336U 82025W   24256.76653371  .00039333  00000-0  20839-1 0  9999
2 36336  82.5381  73.1018 0006945 220.2295 139.8368 14.13387172174957
Source of the keplerian elements: AFSPC